KB6LA Weather Reports


time (UTC)temp
F
wind
direction
speed
knots
gust
knots
rain 1hr
in
rain 24hr
in
rain mn
in
humidity
%
barometer
mb
20260902130340 62 338 1.7 1.7 0.00 0.00 0.00 87 1014.5
20260902125834 62 327 0.9 1.7 0.00 0.00 0.00 87 1014.5
20260902125328 62 322 0.9 1.7 0.00 0.00 0.00 87 1014.1
20260902124822 62 323 0.9 1.7 0.00 0.00 0.00 87 1014.5
20260902124315 62 328 0.9 2.6 0.00 0.00 0.00 87 1014.1
20260902123808 62 338 1.7 1.7 0.00 0.00 0.00 87 1014.5
20260902123302 62 325 0.0 1.7 0.00 0.00 0.00 87 1014.1
20260902122756 62 328 0.0 1.7 0.00 0.00 0.00 87 1014.5
20260902121236 62 328 0.9 1.7 0.00 0.00 0.00 87 1014.5
20260902120730 62 324 1.7 1.7 0.00 0.00 0.00 87 1014.5
20260902120224 61 326 0.9 1.7 0.00 0.00 0.00 87 1014.5
20260902115717 62 316 0.0 1.7 0.00 0.00 0.00 86 1014.5
20260902115210 62 318 0.0 1.7 0.00 0.00 0.00 87 1014.5
20260902114703 62 325 0.9 1.7 0.00 0.00 0.00 87 1014.5
20260902114157 62 327 0.0 1.7 0.00 0.00 0.00 86 1014.5
20260902113145 62 321 0.0 1.7 0.00 0.00 0.00 86 1014.5
20260902112132 62 337 0.0 1.7 0.00 0.00 0.00 86 1014.5
20260902111624 63 335 0.9 1.7 0.00 0.00 0.00 86 1014.5
20260902111118 62 342 0.9 1.7 0.00 0.00 0.00 86 1014.5
20260902110612 63 0 0.9 1.7 0.00 0.00 0.00 85 1014.5
20260902110106 63 328 0.0 1.7 0.00 0.00 0.00 85 1014.5
20260902105559 63 340 0.9 1.7 0.00 0.00 0.00 85 1014.5
20260902105053 63 332 0.0 1.7 0.00 0.00 0.00 85 1014.5
20260902104546 63 341 0.9 1.7 0.00 0.00 0.00 85 1014.5
20260902104039 63 330 0.0 2.6 0.00 0.00 0.00 84 1014.5
20260902103532 64 340 1.7 2.6 0.00 0.00 0.00 84 1014.5
20260902103026 64 343 1.7 2.6 0.00 0.00 0.00 84 1014.5
20260902102520 64 1 0.9 2.6 0.00 0.00 0.00 84 1014.5
20260902102013 64 343 1.7 2.6 0.00 0.00 0.00 84 1014.5
20260902101507 64 25 1.7 2.6 0.00 0.00 0.00 84 1014.5
20260902094935 64 349 1.7 1.7 0.00 0.00 0.00 83 1014.5
20260902094428 64 12 1.7 2.6 0.00 0.00 0.00 83 1014.5
20260902093921 64 26 1.7 3.5 0.00 0.00 0.00 83 1014.5
20260902093415 64 19 1.7 3.5 0.00 0.00 0.00 83 1014.5
20260902092908 64 27 1.7 3.5 0.00 0.00 0.00 83 1014.5
20260902092402 64 9 2.6 3.5 0.00 0.00 0.00 83 1014.5
20260902091856 64 16 1.7 2.6 0.00 0.00 0.00 83 1014.5
20260902091349 64 8 1.7 2.6 0.00 0.00 0.00 82 1014.5
20260902090843 64 4 1.7 3.5 0.00 0.00 0.00 82 1014.5
20260902090337 64 1 2.6 3.5 0.00 0.00 0.00 82 1014.5
20260902085830 64 5 1.7 2.6 0.00 0.00 0.00 82 1014.5
20260902085324 64 25 1.7 3.5 0.00 0.00 0.00 82 1014.5
20260902084817 64 8 1.7 3.5 0.00 0.00 0.00 82 1014.1
20260902084310 64 347 2.6 2.6 0.00 0.00 0.00 81 1014.5
20260902083804 64 36 0.9 3.5 0.00 0.00 0.00 81 1014.5
20260902083300 64 15 1.7 3.5 0.00 0.00 0.00 81 1014.5
20260902081738 64 3 1.7 3.5 0.00 0.00 0.00 80 1014.5
20260902081231 64 11 2.6 5.2 0.00 0.00 0.00 80 1014.5
20260902080725 64 18 3.5 5.2 0.00 0.00 0.00 80 1014.5
20260902075712 64 9 3.5 5.2 0.00 0.00 0.00 79 1014.5
20260902075206 64 18 3.5 5.2 0.00 0.00 0.00 79 1014.5
20260902074659 64 9 3.5 3.5 0.00 0.00 0.00 78 1014.5
20260902074153 64 5 1.7 3.5 0.00 0.00 0.00 77 1014.5
20260902073646 64 7 2.6 3.5 0.00 0.00 0.00 77 1014.5
20260902073140 64 11 1.7 3.5 0.00 0.00 0.00 77 1014.5
20260902072634 64 9 2.6 3.5 0.00 0.00 0.00 77 1014.5
20260902072127 64 22 1.7 3.5 0.00 0.00 0.00 77 1014.1
20260902071621 65 17 3.5 3.5 0.00 0.00 0.00 77 1014.1
20260902071113 65 12 2.6 3.5 0.00 0.00 0.00 77 1014.1
20260902070607 65 0 1.7 3.5 0.00 0.00 0.00 76 1014.1
20260902065555 65 14 2.6 5.2 0.00 0.00 0.00 76 1014.1
20260902064542 65 10 2.6 3.5 0.00 0.00 0.00 74 1013.8
20260902064035 65 355 1.7 2.6 0.00 0.00 0.00 74 1013.8
20260902063528 65 28 1.7 3.5 0.00 0.00 0.00 74 1014.1
20260902063022 65 14 1.7 3.5 0.00 0.00 0.00 73 1014.1
20260902062516 65 19 2.6 3.5 0.00 0.00 0.00 73 1014.1
20260902062009 65 19 2.6 2.6 0.00 0.00 0.00 73 1014.1
20260902061503 65 352 0.9 3.5 0.00 0.00 0.00 73 1014.1
20260902060450 64 0 0.9 2.6 0.00 0.00 0.00 73 1014.1
20260902055437 64 342 0.9 1.7 0.00 0.00 0.00 73 1013.8
20260902054930 65 337 0.9 1.7 0.00 0.00 0.00 74 1013.8
20260902054424 65 327 0.9 1.7 0.00 0.00 0.00 74 1013.8
20260902053917 65 334 0.9 1.7 0.00 0.00 0.00 74 1013.8
20260902053411 65 344 0.9 1.7 0.00 0.00 0.00 74 1013.8
20260902052359 65 333 0.9 2.6 0.00 0.00 0.00 74 1013.8
20260902051851 65 330 0.9 3.5 0.00 0.00 0.00 74 1013.8
20260902051345 65 16 2.6 3.5 0.00 0.00 0.00 74 1013.8
20260902050333 66 357 0.9 2.6 0.00 0.00 0.00 77 1013.8
20260902044306 66 335 0.9 1.7 0.00 0.00 0.00 76 1013.8
20260902043252 65 340 0.0 1.7 0.00 0.00 0.00 76 1013.4
20260902042746 66 328 0.9 0.9 0.00 0.00 0.00 76 1013.4
20260902042240 66 321 0.0 1.7 0.00 0.00 0.00 77 1013.4
20260902041734 66 329 0.0 1.7 0.00 0.00 0.00 77 1013.4
20260902041227 66 318 0.9 1.7 0.00 0.00 0.00 77 1013.4
20260902040721 67 307 0.0 2.6 0.00 0.00 0.00 77 1013.4
20260902040214 67 320 1.7 2.6 0.00 0.00 0.00 76 1013.4
20260902035202 67 322 0.0 1.7 0.00 0.00 0.00 76 1013.1
20260902034655 67 308 0.9 0.9 0.00 0.00 0.00 76 1013.1
20260902034148 67 292 0.0 0.9 0.00 0.00 0.00 76 1012.8
20260902033642 67 288 0.0 0.9 0.00 0.00 0.00 75 1012.8
20260902033136 68 259 0.0 1.7 0.00 0.00 0.00 75 1012.8
20260902032629 68 259 0.0 1.7 0.00 0.00 0.00 75 1012.8
20260902032122 68 250 0.9 2.6 0.00 0.00 0.00 75 1012.8
20260902031616 68 257 0.9 2.6 0.00 0.00 0.00 74 1012.8
20260902031109 68 274 0.0 2.6 0.00 0.00 0.00 74 1012.8
20260902030056 68 242 3.5 3.5 0.00 0.00 0.00 74 1012.8
20260902025550 68 245 1.7 3.5 0.00 0.00 0.00 73 1012.4
20260902025044 69 245 1.7 3.5 0.00 0.00 0.00 73 1012.8
20260902024031 69 252 3.5 5.2 0.00 0.00 0.00 72 1012.8
20260902023524 69 226 2.6 3.5 0.00 0.00 0.00 72 1012.4
20260902023018 69 281 1.7 6.1 0.00 0.00 0.00 72 1012.4
20260902022511 69 257 2.6 6.1 0.00 0.00 0.00 72 1012.4
20260902022005 69 245 2.6 5.2 0.00 0.00 0.00 71 1012.4
20260902021458 69 277 2.6 3.5 0.00 0.00 0.00 71 1012.4
20260902020951 70 266 1.7 7.0 0.00 0.00 0.00 71 1012.4
20260902020445 70 244 4.3 7.0 0.00 0.00 0.00 71 1012.4
20260902015938 70 230 3.5 5.2 0.00 0.00 0.00 71 1012.4
20260902015432 70 239 3.5 6.1 0.00 0.00 0.00 70 1012.4
20260902014926 70 200 2.6 6.1 0.00 0.00 0.00 71 1012.4
20260902014419 71 241 3.5 6.1 0.00 0.00 0.00 70 1012.4
20260902013913 71 245 2.6 7.8 0.00 0.00 0.00 70 1012.8
20260902012900 71 270 1.7 8.7 0.00 0.00 0.00 71 1012.4
20260902012355 71 199 4.3 8.7 0.00 0.00 0.00 71 1012.8
20260902011341 72 255 5.2 7.0 0.00 0.00 0.00 71 1012.4
20260902010833 72 216 4.3 7.0 0.00 0.00 0.00 70 1012.4
20260902010327 71 258 3.5 7.8 0.00 0.00 0.00 71 1012.8
20260902005821 72 258 5.2 7.8 0.00 0.00 0.00 71 1012.8
20260902005314 72 208 5.2 7.8 0.00 0.00 0.00 70 1012.8
20260902003755 73 243 6.1 9.6 0.00 0.00 0.00 69 1012.8
20260902002741 72 224 3.5 11.3 0.00 0.00 0.00 71 1012.8
20260902002235 72 231 6.1 11.3 0.00 0.00 0.00 69 1012.8
20260902001729 73 234 6.1 11.3 0.00 0.00 0.00 70 1012.8
20260902001222 73 248 5.2 8.7 0.00 0.00 0.00 69 1012.8
20260901235702 72 247 5.2 12.2 0.00 0.00 0.00 71 1012.8
20260901235156 72 226 9.6 12.2 0.00 0.00 0.00 71 1013.1
20260901234649 73 267 5.2 11.3 0.00 0.00 0.00 71 1013.1
20260901234142 72 274 3.5 11.3 0.00 0.00 0.00 71 1013.1
20260901233636 72 227 4.3 11.3 0.00 0.00 0.00 71 1013.1
20260901233130 73 226 8.7 11.3 0.00 0.00 0.00 68 1013.1
20260901231610 73 230 10.4 12.2 0.00 0.00 0.00 69 1013.1
20260901231103 72 276 1.7 12.2 0.00 0.00 0.00 72 1013.1
20260901230558 73 204 5.2 13.9 0.00 0.00 0.00 71 1013.1
20260901230050 73 268 7.0 13.9 0.00 0.00 0.00 71 1013.4
20260901225038 73 260 5.2 12.2 0.00 0.00 0.00 71 1013.4
20260901224530 73 257 9.6 12.2 0.00 0.00 0.00 70 1013.4
20260901224024 73 235 7.0 13.9 0.00 0.00 0.00 71 1013.4
20260901223518 73 210 7.8 13.9 0.00 0.00 0.00 72 1013.4
20260901223011 73 225 8.7 12.2 0.00 0.00 0.00 71 1013.4
20260901222504 73 230 6.1 13.0 0.00 0.00 0.00 70 1013.4
20260901221958 74 251 7.0 13.9 0.00 0.00 0.00 70 1013.4
20260901221452 74 237 7.0 13.9 0.00 0.00 0.00 69 1013.4
20260901220945 74 226 9.6 13.9 0.00 0.00 0.00 69 1013.4
20260901215931 75 217 9.6 12.2 0.00 0.00 0.00 68 1013.4
20260901215425 74 222 9.6 12.2 0.00 0.00 0.00 68 1013.8
20260901214919 75 274 5.2 12.2 0.00 0.00 0.00 65 1013.4
20260901214412 74 257 7.8 12.2 0.00 0.00 0.00 67 1013.8
20260901213906 75 255 8.7 9.6 0.00 0.00 0.00 65 1013.8
20260901212346 74 265 4.3 12.2 0.00 0.00 0.00 68 1013.8
20260901211840 75 226 9.6 12.2 0.00 0.00 0.00 65 1013.8
20260901211334 75 308 4.3 12.2 0.00 0.00 0.00 67 1013.8
20260901210826 74 244 5.2 12.2 0.00 0.00 0.00 68 1013.8
20260901210320 75 268 7.0 11.3 0.00 0.00 0.00 66 1013.8
20260901205814 75 244 6.1 12.2 0.00 0.00 0.00 65 1013.8
20260901204801 75 284 5.2 9.6 0.00 0.00 0.00 66 1014.1
20260901204254 75 238 6.1 9.6 0.00 0.00 0.00 65 1014.1
20260901203241 74 271 5.2 11.3 0.00 0.00 0.00 68 1014.1
20260901202734 74 241 5.2 11.3 0.00 0.00 0.00 67 1014.1
20260901202228 75 266 4.3 8.7 0.00 0.00 0.00 67 1014.5
20260901201722 74 210 6.1 12.2 0.00 0.00 0.00 68 1014.5
20260901200708 74 256 4.3 8.7 0.00 0.00 0.00 69 1014.5
20260901200202 73 181 5.2 9.6 0.00 0.00 0.00 70 1014.5
20260901195655 74 236 5.2 9.6 0.00 0.00 0.00 69 1014.5
20260901195149 74 178 5.2 12.2 0.00 0.00 0.00 69 1014.5
20260901194136 74 259 7.8 8.7 0.00 0.00 0.00 68 1014.5
20260901193629 74 320 5.2 8.7 0.00 0.00 0.00 68 1014.8
20260901193123 74 248 4.3 9.6 0.00 0.00 0.00 68 1014.8
20260901192616 74 279 7.0 9.6 0.00 0.00 0.00 69 1014.8
20260901192110 73 211 3.5 9.6 0.00 0.00 0.00 70 1014.8
20260901191057 73 251 6.1 9.6 0.00 0.00 0.00 70 1014.8
20260901190044 74 252 6.1 8.7 0.00 0.00 0.00 69 1014.8
20260901185031 74 224 3.5 9.6 0.00 0.00 0.00 69 1014.8
20260901184524 74 192 5.2 9.6 0.00 0.00 0.00 69 1014.8
20260901184017 74 171 3.5 7.8 0.00 0.00 0.00 69 1014.8
20260901183511 73 256 4.3 8.7 0.00 0.00 0.00 69 1014.8
20260901183005 74 230 7.0 8.7 0.00 0.00 0.00 69 1014.8
20260901182459 74 249 4.3 8.7 0.00 0.00 0.00 68 1014.8
20260901181951 73 227 1.7 8.7 0.00 0.00 0.00 70 1014.8
20260901181445 73 199 3.5 7.0 0.00 0.00 0.00 70 1014.8
20260901180432 73 229 1.7 8.7 0.00 0.00 0.00 72 1014.8
20260901175926 72 253 4.3 8.7 0.00 0.00 0.00 71 1014.8
20260901175419 73 235 2.6 7.0 0.00 0.00 0.00 71 1014.8
20260901174913 73 178 6.1 7.0 0.00 0.00 0.00 70 1014.8
20260901174406 73 162 1.7 7.0 0.00 0.00 0.00 72 1014.8
20260901173859 73 220 5.2 7.0 0.00 0.00 0.00 70 1014.8
20260901173353 72 270 2.6 7.0 0.00 0.00 0.00 72 1014.8
20260901172847 72 214 0.9 7.0 0.00 0.00 0.00 74 1014.8
20260901172340 71 241 1.7 7.8 0.00 0.00 0.00 73 1014.8
20260901171834 73 218 6.1 7.8 0.00 0.00 0.00 71 1014.8
20260901165808 73 111 1.7 5.2 0.00 0.00 0.00 68 1014.5
20260901165301 73 133 1.7 3.5 0.00 0.00 0.00 69 1014.8
20260901164754 72 153 0.9 5.2 0.00 0.00 0.00 71 1014.8
20260901164248 71 62 3.5 5.2 0.00 0.00 0.00 72 1014.5
20260901162223 70 183 2.6 5.2 0.00 0.00 0.00 75 1014.5
20260901161715 69 208 1.7 5.2 0.00 0.00 0.00 76 1014.5
20260901161209 69 190 2.6 5.2 0.00 0.00 0.00 77 1014.8
20260901160704 69 290 0.0 2.6 0.00 0.00 0.00 77 1014.8
20260901160156 69 297 0.9 2.6 0.00 0.00 0.00 79 1014.5
20260901155650 68 264 1.7 2.6 0.00 0.00 0.00 79 1014.8
20260901155144 69 283 1.7 3.5 0.00 0.00 0.00 80 1014.8
20260901154637 68 279 0.0 3.5 0.00 0.00 0.00 81 1014.5
20260901153624 67 276 1.7 2.6 0.00 0.00 0.00 81 1014.8
20260901153117 67 269 1.7 2.6 0.00 0.00 0.00 81 1014.5
20260901152104 67 300 0.9 2.6 0.00 0.00 0.00 81 1014.5
20260901151558 67 264 0.0 0.9 0.00 0.00 0.00 81 1014.1
20260901151052 67 319 0.0 0.9 0.00 0.00 0.00 82 1014.5
20260901150038 67 319 0.0 0.9 0.00 0.00 0.00 83 1014.1
20260901145532 66 319 0.0 1.7 0.00 0.00 0.00 84 1014.1
20260901145025 65 296 0.9 1.7 0.00 0.00 0.00 84 1014.1
20260901144518 65 310 0.9 1.7 0.00 0.00 0.00 85 1014.1
20260901144012 64 312 1.7 1.7 0.00 0.00 0.00 85 1013.8
20260901143506 64 322 0.9 1.7 0.00 0.00 0.00 86 1013.8
20260901142959 64 325 0.9 1.7 0.00 0.00 0.00 86 1013.8
20260901142453 64 328 0.9 1.7 0.00 0.00 0.00 86 1013.8
20260901141946 64 341 0.9 1.7 0.00 0.00 0.00 87 1013.4
20260901141439 63 332 0.0 1.7 0.00 0.00 0.00 87 1013.4
20260901140933 63 336 0.0 1.7 0.00 0.00 0.00 88 1013.4
20260901135920 62 355 1.7 2.6 0.00 0.00 0.00 89 1013.4
20260901135414 62 15 1.7 2.6 0.00 0.00 0.00 90 1013.4
20260901134907 61 351 0.9 1.7 0.00 0.00 0.00 90 1013.4
20260901134401 61 345 1.7 1.7 0.00 0.00 0.00 90 1013.4
20260901133854 61 323 0.0 1.7 0.00 0.00 0.00 90 1013.4
20260901133347 61 333 0.9 1.7 0.00 0.00 0.00 90 1013.4
20260901132841 61 312 0.9 2.6 0.00 0.00 0.00 90 1013.4
20260901132335 61 331 1.7 2.6 0.00 0.00 0.00 90 1013.4
20260901131828 61 342 0.9 2.6 0.00 0.00 0.00 90 1013.4
20260901131322 61 328 1.7 2.6 0.00 0.00 0.00 90 1013.4
20260901130815 61 334 0.9 2.6 0.00 0.00 0.00 90 1013.1